Location: Newark
(48.6461°N, 4.3644°W)
Time: 16:44:22
(UTC+00:00)

Explorer 7 - Visible Passes

Search period start: 19 January 2020 00:00
Search period end: 29 January 2020 00:00
Orbit: 485 x 679 km, 50.3° (Epoch: 19 January)

Date Brightness Start Highest point End Pass type
(mag) Time Alt. Az. Time Alt. Az. Time Alt. Az.
19 Jan 9.1 04:49:24 23° E 04:49:24 23° E 04:51:06 10° E visible
19 Jan 7.1 06:25:43 29° W 06:27:31 54° SSW 06:31:39 10° SE visible
20 Jan 8.9 04:54:12 26° E 04:54:12 26° E 04:56:06 10° E visible
20 Jan 7.5 06:30:31 24° W 06:32:21 39° SSW 06:36:18 10° SE visible
21 Jan 8.7 04:59:02 27° ESE 04:59:02 27° ESE 05:01:03 10° ESE visible
21 Jan 8.1 06:35:21 20° WSW 06:37:09 27° SW 06:40:44 10° SSE visible
22 Jan 8.6 05:03:55 27° SE 05:03:55 27° SE 05:05:55 10° ESE visible
22 Jan 8.5 06:40:15 15° WSW 06:41:54 19° SW 06:44:50 10° S visible
23 Jan 8.7 05:08:52 24° SE 05:08:52 24° SE 05:10:41 10° SE visible
23 Jan 8.9 06:45:12 11° WSW 06:46:35 12° SW 06:48:16 10° SSW visible
24 Jan 8.9 05:13:54 18° SSE 05:13:54 18° SSE 05:15:16 10° SSE visible
25 Jan 9.3 05:19:00 13° S 05:19:00 13° S 05:19:35 10° SSE visible
